This is the latest recevied weather packets stored in our database for station/object KJ7HSW. If no packets are shown the sender has not sent any weather packets the latest 10 day(s).
| Time | Temp. | Humidity | Pressure | Rain* | Wind** | Luminosity | Snow |
|---|---|---|---|---|---|---|---|
| 1777668017 | 24.44° C | 42% | 1015.6 hPa | 0 mm | - | 771 W/m² | - |
| 1777667714 | 24.44° C | 44% | 1015.6 hPa | 0 mm | - | 793 W/m² | - |
| 1777667412 | 23.89° C | 39% | 1015.6 hPa | 0 mm | - | 794 W/m² | - |
| 1777667108 | 24.44° C | 38% | 1015.6 hPa | 0 mm | - | 797 W/m² | - |
| 1777666805 | 23.89° C | 38% | 1015.4 hPa | 0 mm | - | 824 W/m² | - |
| 1777666502 | 23.89° C | 44% | 1015.8 hPa | 0 mm | - | 857 W/m² | - |
| 1777666199 | 23.33° C | 41% | 1015.8 hPa | 0 mm | - | 779 W/m² | - |
| 1777665896 | 23.33° C | 42% | 1015.7 hPa | 0 mm | - | 683 W/m² | - |
| 1777665593 | 23.33° C | 42% | 1015.8 hPa | 0 mm | - | 433 W/m² | - |
| 1777665290 | 23.33° C | 39% | 1015.9 hPa | 0 mm | - | 613 W/m² | - |
| 1777664985 | 23.33° C | 41% | 1015.8 hPa | 0 mm | - | 648 W/m² | - |
| 1777664681 | 22.78° C | 44% | 1015.9 hPa | 0 mm | - | 732 W/m² | - |
| 1777664378 | 23.33° C | 41% | 1015.9 hPa | 0 mm | - | 611 W/m² | - |
| 1777664076 | 23.33° C | 42% | 1016 hPa | 0 mm | - | 713 W/m² | - |
| 1777663773 | 22.78° C | 42% | 1015.8 hPa | 0 mm | - | 752 W/m² | - |
| 1777663471 | 22.78° C | 45% | 1015.9 hPa | 0 mm | - | 803 W/m² | - |
| 1777663168 | 22.78° C | 41% | 1016.3 hPa | 0 mm | - | 803 W/m² | - |
| 1777662865 | 22.78° C | 44% | 1016.2 hPa | 0 mm | - | 785 W/m² | - |
| 1777662562 | 22.22° C | 43% | 1016.3 hPa | 0 mm | - | 799 W/m² | - |
| 1777662258 | 22.78° C | 42% | 1016.4 hPa | 0 mm | - | 712 W/m² | - |
| 1777661958 | 22.78° C | 48% | 1016.4 hPa | 0 mm | - | 679 W/m² | - |
| 1777661655 | 22.22° C | 43% | 1016.5 hPa | 0 mm | - | 627 W/m² | - |
| 1777661350 | 22.22° C | 44% | 1016.5 hPa | 0 mm | - | 640 W/m² | - |
| 1777661047 | 22.22° C | 47% | 1016.5 hPa | 0 mm | - | 649 W/m² | - |
| 1777660741 | 22.22° C | 46% | 1016.5 hPa | 0 mm | - | 618 W/m² | - |
* Rain latest hour (hover to see other rain measurements)
** Current wind speed in m/s (hover to see current wind gust speed)